User: anonymous   Login
Location: Unspecified
(0.0000°N, 0.0000°E)
Time: 11:09:17
(UTC+00:00)
Language:

Oscar 19 - Orbit

View from above orbital plane
View from above orbital plane
View from above satellite
View from above satellite

Ground track
Ground track

The orbit data is extracted from the following two-line orbital elements,

1 20442U 90005G   22271.85304747  .00000125  00000-0  62428-4 0  9992
2 20442  98.8065 238.3529 0010933 221.6248 138.4104 14.33088928707914
Epoch (UTC): 28 September 2022 20:28:23
Eccentricity: 0.0010933
inclination: 98.8065°
perigee height: 773 km
apogee height: 789 km
right ascension of ascending node: 238.3529°
argument of perigee: 221.6248°
revolutions per day: 14.33088928
mean anomaly at epoch: 138.4104°
orbit number at epoch: 70791

The dashed part of the orbit path shows where the satellite is in the earth's shadow,  

DLR